This is the latest recevied weather packets stored in our database for station/object N7WSS. If no packets are shown the sender has not sent any weather packets the latest 10 day(s).
| Time | Temp. | Humidity | Pressure | Rain* | Wind** | Luminosity | Snow |
|---|---|---|---|---|---|---|---|
| 1788391868 | 30.56° C | 47% | 1013.2 hPa | 0 mm | - | - | - |
| 1788391562 | 30.56° C | 46% | 1013.3 hPa | 0 mm | - | - | - |
| 1788391262 | 31.11° C | 45% | 1013.5 hPa | 0 mm | - | - | - |
| 1788390962 | 31.67° C | 44% | 1013.6 hPa | 0 mm | - | - | - |
| 1788390661 | 31.67° C | 44% | 1013.7 hPa | 0 mm | - | - | - |
| 1788390362 | 31.67° C | 45% | 1013.9 hPa | 0 mm | - | - | - |
| 1788390061 | 30.56° C | 48% | 1013.7 hPa | 0 mm | - | - | - |
| 1788389756 | 30.56° C | 47% | 1013.9 hPa | 0 mm | - | - | - |
| 1788389455 | 30° C | 48% | 1013.8 hPa | 0 mm | - | - | - |
| 1788389154 | 30° C | 49% | 1013.9 hPa | 0 mm | - | - | - |
| 1788388850 | 29.44° C | 50% | 1013.8 hPa | 0 mm | - | - | - |
| 1788388547 | 29.44° C | 50% | 1013.7 hPa | 0 mm | - | - | - |
| 1788388245 | 29.44° C | 52% | 1014.1 hPa | 0 mm | - | - | - |
| 1788387944 | 28.89° C | 53% | 1014.2 hPa | 0 mm | - | - | - |
| 1788387643 | 28.89° C | 55% | 1014.2 hPa | 0 mm | - | - | - |
| 1788387338 | 28.89° C | 56% | 1014.2 hPa | 0 mm | - | - | - |
| 1788387033 | 28.33° C | 58% | 1014.3 hPa | 0 mm | - | - | - |
| 1788386728 | 28.33° C | 59% | 1013.9 hPa | 0 mm | - | - | - |
| 1788386423 | 27.78° C | 60% | 1014.3 hPa | 0 mm | - | - | - |
| 1788386119 | 27.78° C | 60% | 1014.3 hPa | 0 mm | - | - | - |
| 1788385815 | 27.78° C | 60% | 1014.1 hPa | 0 mm | - | - | - |
| 1788385514 | 27.78° C | 59% | 1014.4 hPa | 0 mm | - | - | - |
| 1788385213 | 27.78° C | 57% | 1014.3 hPa | 0 mm | - | - | - |
| 1788384909 | 28.89° C | 54% | 1014.2 hPa | 0 mm | - | - | - |
| 1788384608 | 29.44° C | 52% | 1014.4 hPa | 0 mm | - | - | - |
* Rain latest hour (hover to see other rain measurements)
** Current wind speed in m/s (hover to see current wind gust speed)